Wind_Speed
16 15 15 16 16 15 14 14 15 16 17 18 18 18 19 20 20 20 22 23 23 24 25 25 25 26 26 27 27 27 28 29 30 30 32 33 34 34 35 35 35 37 38
13 14 15 15 15 14 14 15 16 17 17 17 17 17 18 19 20 20 21 22 23 24 24 23 23 24 25 25 26 26 27 28 29 29 30 31 32 33 33 33 33 34 37
12 13 14 14 12 12 14 15 15 16 16 16 16 17 18 19 20 20 20 22 23 23 22 22 22 22 23 24 25 26 26 27 28 29 30 30 30 31 32 33 33 33 34
12 12 12 11 11 12 14 15 15 15 15 16 17 18 18 19 19 20 21 22 21 20 20 21 21 22 24 25 25 25 26 27 28 29 29 30 30 31 31 32 32 33 34
11 11 11 10 11 13 13 14 14 15 16 16 17 17 17 17 18 20 21 20 20 20 20 21 22 23 24 25 25 25 26 27 27 28 29 30 30 30 30 30 31 31 31
11 11 10 10 12 13 13 14 15 15 16 17 16 16 16 17 18 20 20 20 20 20 21 22 23 24 24 24 25 26 26 26 27 28 28 28 28 29 28 28 28 28 28
11 11 11 11 12 13 14 14 15 15 16 16 16 15 16 17 18 19 20 20 21 22 23 23 24 24 24 24 25 25 26 26 27 27 27 27 27 27 27 27 27 26 26
11 11 11 11 12 13 14 14 14 15 15 15 15 15 16 17 17 19 20 21 21 23 23 24 24 24 24 24 24 24 25 26 26 26 26 27 26 25 25 25 25 24 23
11 11 11 12 12 13 13 13 14 14 14 14 14 16 17 17 18 19 20 22 23 24 24 24 24 24 23 23 24 24 24 25 25 25 25 25 26 25 26 26 24 23 22
11 11 12 12 12 12 12 13 13 13 13 14 14 16 17 18 19 20 21 23 24 24 25 25 24 23 23 23 23 23 23 24 24 24 24 24 25 26 26 25 23 21 19
12 12 13 13 12 12 13 13 13 13 13 14 15 16 18 19 20 21 22 23 24 25 25 25 24 22 22 22 22 22 23 23 23 23 24 25 25 26 25 24 22 20 19
12 12 12 12 12 12 13 12 11 12 13 14 16 17 18 19 20 21 23 23 24 25 25 24 23 22 21 22 23 22 23 23 22 23 25 25 25 26 25 23 22 21 20
12 12 12 13 12 12 12 11 12 12 13 14 16 18 18 19 20 21 23 23 24 24 24 24 23 23 22 22 23 22 22 22 23 24 25 25 24 24 23 22 21 20 19
13 13 13 12 12 12 12 12 12 13 14 15 17 18 19 19 20 22 23 23 24 24 24 25 24 23 22 22 23 22 22 23 23 23 24 24 24 23 23 22 22 21 19
13 13 13 12 12 12 12 12 13 14 14 16 17 18 19 20 21 22 23 23 23 24 24 25 25 24 23 23 23 23 23 23 23 22 23 23 23 23 23 22 21 21 19
13 13 13 13 12 12 13 13 14 14 15 16 18 18 19 20 21 22 23 23 23 23 24 24 24 24 24 24 24 24 24 23 23 22 23 23 23 23 23 22 21 20 19
13 13 13 13 13 13 13 13 14 15 16 16 17 18 19 20 21 22 22 23 23 23 24 24 24 25 24 24 25 24 23 23 23 23 22 23 23 23 22 22 21 20 19
14 13 13 13 14 14 14 14 15 15 15 16 17 18 19 20 21 22 22 22 23 23 23 24 24 24 24 24 24 23 23 23 23 22 22 22 22 22 21 21 21 20 18
14 14 14 14 14 14 14 15 15 15 15 16 17 18 19 20 21 21 21 22 22 22 23 23 24 24 24 24 24 23 22 22 21 22 21 21 21 21 21 21 20 19 18
14 14 15 15 15 14 14 15 15 16 16 17 18 18 19 19 20 20 20 21 21 22 23 23 24 24 24 24 24 24 23 22 22 22 21 21 21 21 20 20 19 18 17
14 15 15 15 16 15 15 15 16 17 17 17 17 18 18 19 19 20 19 20 20 22 23 24 24 24 24 25 25 24 22 21 21 22 21 21 20 20 20 19 18 18 18
15 15 16 16 16 15 16 16 17 17 17 17 17 18 18 18 18 18 18 19 20 21 22 23 24 24 24 24 24 24 22 21 21 21 21 20 19 19 19 18 18 18 17
16 16 16 16 17 17 17 17 17 17 16 16 16 16 17 17 17 17 17 18 19 21 22 23 24 24 24 23 24 24 23 22 21 22 22 21 20 19 19 18 18 18 17
16 16 16 17 17 17 17 17 16 16 15 16 16 15 16 16 16 16 17 18 19 20 21 22 23 23 24 24 24 24 23 23 22 21 21 21 20 20 19 18 18 18 17
16 16 16 17 16 16 16 16 15 15 15 15 15 15 15 15 15 15 16 18 19 20 20 21 22 22 23 23 24 24 23 23 22 21 21 21 21 20 19 18 17 17 16
16 15 15 15 15 15 15 14 14 14 14 14 15 15 15 15 15 16 17 17 18 19 20 20 20 21 22 23 23 23 23 22 21 21 21 21 21 20 19 18 17 17 15
Wind_Direction
288 288 290 291 291 290 292 295 301 304 302 301 300 301 303 303 301 298 297 300 301 299 296 295 294 295 296 297 297 296 295 294 294 292 292 291 289 287 285 282 278 275 272
295 295 297 295 292 292 297 301 305 307 308 307 303 306 307 306 306 305 302 303 304 303 301 299 297 297 297 298 299 298 297 296 296 296 297 295 292 290 288 284 280 276 273
299 300 300 300 299 299 303 307 308 309 309 311 310 312 312 311 309 308 309 309 307 306 306 304 303 303 301 301 302 302 301 301 299 299 298 298 296 294 290 284 281 278 276
300 303 304 304 304 305 310 312 310 310 311 312 313 315 315 315 314 313 315 315 314 311 309 309 309 308 306 304 304 304 304 303 302 301 300 300 299 298 295 290 286 281 279
299 302 304 307 310 310 310 309 310 311 311 311 314 317 318 319 319 320 318 320 320 317 313 312 311 311 309 306 304 305 305 305 304 304 303 302 302 302 299 296 291 287 284
300 303 304 306 311 314 313 312 313 314 314 313 317 319 319 321 322 324 323 325 323 321 316 314 312 310 311 309 307 307 307 306 306 307 306 306 306 303 303 301 297 291 285
299 300 299 303 309 314 316 314 312 314 318 320 323 323 322 323 326 327 327 325 324 322 319 316 313 313 314 312 310 309 308 307 308 309 309 309 310 308 305 304 302 295 288
301 300 298 301 307 311 315 316 315 315 317 322 326 326 327 328 329 327 327 328 324 322 321 319 318 317 316 314 313 311 311 311 312 312 312 312 312 313 312 310 306 299 292
302 301 302 305 309 311 313 315 316 319 322 324 327 329 330 330 329 330 331 330 329 327 326 323 321 321 319 317 317 317 317 317 316 315 315 314 314 314 314 313 308 300 295
303 301 302 305 308 311 311 312 316 322 324 326 329 329 330 331 331 334 334 333 332 330 329 326 323 321 320 320 320 322 323 323 322 320 319 318 317 317 316 315 312 307 300
304 304 304 304 306 308 309 310 316 322 326 327 328 331 331 331 332 334 335 336 337 335 332 330 327 325 322 321 323 324 325 326 326 325 323 320 318 318 318 317 315 309 304
301 301 303 303 302 304 304 309 318 324 326 326 327 330 330 332 333 335 336 337 336 336 334 332 331 329 327 326 326 327 328 328 328 328 327 325 323 323 322 320 318 313 307
298 297 299 301 301 303 305 311 316 319 323 326 326 328 329 332 333 333 335 336 336 336 337 336 335 332 330 329 329 330 330 329 329 328 329 330 330 330 328 326 324 319 313
295 295 297 300 302 303 305 311 315 317 320 324 326 328 329 331 332 332 333 335 335 335 337 337 337 335 334 334 334 335 334 333 332 331 331 332 333 332 330 329 328 326 321
292 293 294 296 300 301 304 309 314 316 318 322 324 326 328 330 332 334 334 334 336 336 338 339 340 339 337 336 335 335 335 334 333 333 333 333 334 335 335 333 330 328 325
289 291 294 296 298 299 302 309 314 315 316 317 320 323 325 327 330 332 334 335 336 336 337 338 339 339 339 337 336 335 335 334 333 332 331 332 334 335 335 334 332 330 328
290 290 291 292 295 297 301 306 310 312 314 314 316 321 324 325 328 331 334 336 337 337 337 337 339 339 339 338 337 336 336 336 335 333 332 333 334 335 336 335 333 329 327
289 289 289 290 293 295 299 303 306 310 312 312 315 319 321 324 327 331 334 337 338 339 339 341 342 342 342 341 340 339 338 338 336 334 333 334 335 336 337 337 335 332 330
286 288 289 290 292 292 296 300 303 307 309 312 314 317 319 323 327 330 334 337 340 342 343 344 345 345 345 345 344 343 342 341 341 340 339 338 337 337 337 338 339 340 339
285 287 289 291 293 292 293 297 301 305 307 309 312 314 317 321 325 328 332 335 339 342 345 347 347 346 346 347 345 344 343 342 341 342 342 341 341 340 341 343 343 342 340
284 286 289 292 295 292 293 296 300 302 304 305 309 313 316 320 323 326 330 334 337 340 343 346 347 348 348 349 349 348 347 345 344 345 345 344 343 344 345 346 344 343 342
283 286 289 292 294 293 295 297 299 300 302 303 307 311 315 319 321 324 327 331 335 338 342 345 347 349 349 350 351 351 350 348 347 346 346 345 345 346 347 347 345 345 344
283 287 290 291 294 293 294 295 297 298 299 301 305 311 314 317 320 323 326 329 333 337 340 342 344 346 347 348 349 350 350 349 347 347 348 348 349 348 347 346 347 348 347
284 287 289 292 292 291 292 293 295 296 297 299 303 308 311 315 319 323 326 329 332 335 338 340 341 344 346 347 348 349 349 349 349 347 348 349 350 349 348 347 346 346 349
284 287 290 293 292 291 290 291 293 294 296 299 302 304 307 311 315 319 323 327 330 333 336 338 341 344 346 348 350 350 350 349 350 351 350 349 349 348 349 348 346 346 349
283 287 291 293 292 291 289 290 292 294 294 296 299 301 304 308 312 315 319 324 327 332 336 339 342 343 345 347 349 350 352 354 354 352 351 351 350 350 350 350 349 349 350
Height
5791 5789 5788 5786 5784 5782 5781 5779 5777 5775 5772 5770 5768 5766 5763 5761 5758 5756 5754 5751 5748 5745 5742 5739 5736 5734 5731 5728 5725 5722 5719 5716 5713 5710 5706 5703 5699 5695 5692 5689 5686 5685 5683
5787 5785 5784 5782 5780 5779 5777 5775 5773 5770 5768 5766 5764 5762 5759 5756 5753 5751 5748 5745 5742 5739 5735 5732 5729 5726 5724 5721 5718 5715 5711 5708 5705 5702 5697 5693 5689 5685 5682 5679 5676 5673 5672
5783 5782 5780 5778 5777 5775 5773 5771 5769 5767 5765 5762 5760 5758 5755 5752 5749 5746 5743 5740 5736 5732 5729 5726 5723 5720 5717 5714 5711 5707 5704 5700 5696 5693 5689 5684 5680 5676 5672 5669 5666 5663 5661
5780 5779 5777 5775 5774 5772 5770 5768 5765 5764 5761 5759 5757 5754 5751 5748 5745 5742 5739 5735 5731 5727 5723 5720 5717 5714 5711 5707 5704 5701 5697 5693 5688 5684 5680 5676 5671 5667 5662 5658 5655 5652 5650
5777 5776 5774 5773 5771 5769 5767 5765 5762 5760 5758 5756 5753 5750 5748 5745 5741 5738 5734 5730 5726 5722 5718 5715 5712 5708 5704 5701 5697 5694 5690 5685 5681 5676 5672 5668 5663 5658 5653 5649 5645 5641 5639
5775 5773 5771 5770 5768 5766 5764 5761 5759 5757 5755 5752 5749 5747 5744 5741 5738 5734 5730 5726 5722 5718 5714 5710 5706 5702 5698 5695 5691 5687 5682 5678 5674 5669 5665 5660 5655 5649 5645 5640 5636 5632 5630
5772 5770 5769 5767 5765 5763 5761 5758 5756 5754 5752 5749 5746 5744 5741 5738 5734 5731 5727 5722 5718 5714 5709 5705 5701 5697 5693 5689 5684 5680 5676 5671 5667 5662 5657 5652 5647 5642 5637 5633 5628 5624 5621
5769 5767 5766 5764 5763 5761 5758 5756 5754 5751 5749 5746 5744 5741 5738 5735 5731 5727 5723 5718 5714 5709 5705 5700 5695 5691 5687 5682 5678 5673 5669 5664 5660 5655 5651 5646 5641 5635 5630 5626 5621 5617 5614
5766 5764 5763 5762 5760 5758 5756 5754 5751 5749 5746 5744 5741 5738 5735 5732 5728 5724 5719 5714 5710 5705 5700 5695 5690 5686 5681 5677 5672 5667 5663 5658 5654 5649 5644 5639 5634 5629 5624 5619 5614 5610 5607
5763 5761 5760 5758 5757 5755 5753 5751 5749 5746 5744 5741 5738 5735 5732 5728 5724 5720 5715 5710 5706 5700 5695 5690 5685 5681 5676 5671 5666 5662 5657 5653 5648 5643 5638 5634 5629 5624 5618 5613 5608 5604 5601
5760 5758 5757 5755 5754 5752 5750 5748 5746 5744 5741 5738 5736 5733 5729 5725 5721 5717 5712 5707 5702 5696 5691 5686 5681 5676 5671 5666 5661 5657 5652 5647 5643 5638 5633 5628 5622 5617 5612 5607 5602 5598 5595
5757 5755 5754 5752 5751 5749 5747 5745 5743 5741 5739 5736 5733 5730 5726 5722 5718 5713 5709 5704 5698 5693 5688 5682 5677 5672 5667 5662 5657 5652 5647 5642 5637 5632 5627 5621 5616 5611 5606 5601 5596 5592 5588
5753 5752 5750 5749 5747 5746 5744 5742 5740 5738 5736 5733 5730 5726 5723 5719 5715 5710 5705 5701 5695 5690 5684 5679 5673 5668 5663 5658 5653 5648 5643 5638 5633 5627 5622 5616 5611 5606 5600 5596 5591 5587 5583
5750 5748 5747 5746 5744 5742 5741 5739 5737 5735 5733 5730 5727 5723 5720 5716 5712 5707 5702 5697 5692 5687 5681 5676 5670 5665 5659 5654 5649 5644 5639 5633 5628 5623 5617 5612 5607 5602 5597 5592 5587 5583 5579
5746 5745 5743 5742 5741 5739 5738 5736 5734 5732 5729 5727 5723 5720 5716 5713 5708 5704 5699 5694 5689 5684 5678 5673 5667 5662 5656 5651 5645 5640 5635 5630 5624 5619 5613 5608 5603 5598 5593 5588 5584 5579 5575
5742 5741 5739 5738 5737 5736 5734 5732 5730 5728 5726 5723 5720 5717 5713 5709 5705 5701 5696 5691 5686 5681 5675 5670 5664 5658 5653 5647 5642 5636 5631 5625 5620 5615 5610 5605 5600 5595 5590 5585 5580 5576 5572
5737 5737 5735 5734 5733 5732 5730 5728 5727 5724 5722 5719 5716 5713 5710 5706 5702 5698 5693 5688 5683 5678 5672 5667 5661 5655 5649 5643 5638 5632 5627 5621 5616 5611 5606 5602 5597 5592 5587 5582 5577 5573 5569
5733 5732 5731 5730 5729 5727 5726 5724 5722 5720 5717 5715 5712 5709 5706 5702 5698 5694 5690 5685 5680 5675 5669 5664 5658 5652 5646 5640 5634 5628 5623 5617 5612 5608 5603 5598 5593 5588 5584 5579 5574 5570 5565
5728 5728 5726 5725 5724 5723 5721 5719 5717 5715 5713 5710 5708 5705 5702 5699 5695 5691 5687 5682 5677 5672 5667 5661 5655 5649 5643 5637 5631 5625 5620 5615 5610 5605 5600 5595 5590 5585 5581 5576 5571 5567 5563
5724 5723 5722 5721 5719 5718 5716 5715 5713 5711 5709 5706 5704 5701 5698 5695 5692 5688 5683 5679 5674 5669 5664 5659 5653 5647 5641 5635 5629 5623 5618 5613 5607 5602 5597 5592 5588 5583 5578 5574 5569 5565 5560
5719 5718 5717 5715 5714 5713 5711 5710 5708 5706 5704 5702 5700 5697 5694 5691 5688 5684 5680 5676 5672 5667 5662 5656 5650 5645 5639 5633 5627 5621 5616 5611 5606 5601 5595 5590 5586 5581 5576 5572 5568 5563 5558
5714 5713 5712 5710 5709 5707 5706 5704 5703 5701 5699 5697 5695 5693 5690 5687 5684 5680 5676 5673 5668 5664 5659 5653 5648 5642 5637 5631 5625 5620 5614 5609 5604 5599 5594 5589 5584 5579 5575 5570 5566 5562 5557
5709 5708 5707 5705 5704 5702 5700 5699 5697 5695 5693 5692 5690 5688 5685 5682 5679 5676 5673 5669 5665 5661 5656 5651 5645 5640 5634 5629 5623 5618 5612 5607 5602 5597 5592 5587 5583 5578 5574 5569 5565 5561 5556
5703 5702 5701 5700 5698 5697 5695 5693 5692 5690 5688 5687 5685 5683 5681 5678 5675 5672 5669 5666 5662 5657 5653 5648 5643 5637 5632 5626 5621 5616 5610 5605 5600 5595 5590 5586 5581 5576 5572 5568 5564 5560 5556
5698 5697 5695 5694 5692 5691 5689 5688 5686 5685 5683 5682 5680 5678 5676 5674 5671 5668 5665 5662 5658 5654 5649 5644 5640 5635 5630 5624 5619 5614 5608 5603 5598 5593 5589 5584 5579 5575 5570 5566 5562 5558 5555
5692 5691 5690 5688 5687 5685 5684 5682 5681 5680 5679 5677 5675 5673 5671 5669 5667 5664 5661 5658 5654 5650 5646 5641 5637 5632 5627 5623 5617 5612 5607 5602 5597 5592 5587 5582 5578 5573 5569 5564 5561 5557 5554